STARLINK-36642, 67659

Orbit data source: Space-Track

STARLINK-36642, 67659 is a payload satellite owned by SpaceX/Seattle (US) in SSO that was launched on Mon, 02 Feb 2026 UTC via an FALCON 9 launch vehicle from the Air Force Western Test Range (AFWTR). Payload-class satellites include a variety of spacecraft equipped with specific instruments for various scientific and technological missions. These include communications satellites like Starlink; space stations such as the ISS; scientific satellites like the Hubble; Earth observation satellites from companies like Planet Labs, Umbra, and HawkEye 360; GPS; miniature CubeSats for education and research; and military/defense satellites.

Loading next visibility...
Identifier
67659, 2026-022M
Orbit
SSO
Country
Flag of USUS
Related business
Manufacturer
SpaceX/Seattle
Mission
Operational spacecraft
Bus & Motor
STARLINK V2MO, Unknown motor
Mass
575 kg wet, ~530 kg dry
Launch date (UTC)
2026-02-02 (2 months ago)
Launch vehicle
FALCON 9
Launch site
Air Force Western Test Range (AFWTR)
Object type
Payload
Rocket body
Debris
Shape & HBR
Unknown shape, 17.7 m
Radar Cross Section
RCS unknown

Expand to show TLE details & history
Last TLE update: 8 hours ago

TLE from 8 hours ago
0 STARLINK-36642
1 67659U 26022M   26095.57751205  .00032186  00000-0  99444-3 0  9992
2 67659  97.2840 129.5387 0001504  95.7224 264.4190 15.33463833  9698
Epoch: 2026-04-05T13:51Z
TLE epoch observation values (Epoch: 2026-04-05T13:51:37.041Z)
Latitude
-0.00003°
Longitude
87.75343°
Altitude
468.699 km
Speed
7.632 km/s
True Right ascension
08h 38m 09s
True Declination
0° 00' 00"
Sunlit
Object was in full shadow at epoch
Visualization orbit readout
Latitude
Unknown
Longitude
Unknown
Altitude
Unknown
Speed
Unknown
Apparent Right ascension
Unknown
Apparent Declination
Unknown
Sunlit
N/A
Visualization observer readout
Local Sidereal Time
03:43:07
Azimuth
Unknown
Elevation
Unknown
Doppler factor
Unknown
Orbital elements
Apogee altitude
463.459 km
Perigee altitude
461.401 km
Semi-major axis
6,840.567 km
Eccentricity
0.00015
Inclination
97.284°
RAAN
129.5387°
Arg. of periapsis
95.7224°
True anomaly
264.40185°
Mean anomaly
264.419°
Eccentric anomaly
264.41042°
Mean motion
3.83623 °/min
Orbital period
93.84 mins
BSTAR
0.00099444
Loading maneuver chart data...
Computing Atmospheric mass density...
Loading historical data...
Loading historical data...
Loading historical data...
Loading historical data...
Loading historical data...
Loading historical data...
Loading historical data...

Documentation

Showing up to 5 results
|